Location: Esterri de Aneo
(42.6284°N, 1.1223°E)
Time: 03:48:28
(UTC+00:00)

BlueWalker 3 - Visible Passes

Search period start: 18 February 2026 00:00
Search period end: 28 February 2026 00:00
Orbit: 451 x 460 km, 53.2° (Epoch: 17 February)

Date Brightness Start Highest point End Pass type
(mag) Time Alt. Az. Time Alt. Az. Time Alt. Az.
20 Feb 4.9 06:01:38 10° SSE 06:03:17 13° SE 06:04:57 10° E visible
23 Feb 3.0 05:49:22 10° SSW 05:52:46 42° SE 05:56:11 10° ENE visible
24 Feb 3.4 05:13:44 10° SSW 05:16:57 31° SE 05:20:10 10° ENE visible
25 Feb 3.8 04:39:49 19° SSE 04:41:08 24° SE 04:44:04 10° ENE visible
26 Feb 4.3 04:05:51 17° ESE 04:05:51 17° ESE 04:07:50 10° E visible
26 Feb 1.8 05:39:35 15° WSW 05:42:28 60° NNW 05:46:02 10° NE visible
27 Feb 1.6 05:05:27 43° WSW 05:06:31 78° NW 05:10:08 10° NE visible
